| time (UTC) | temp F | wind direction | speed MPH | gust MPH | rain 1hr in | rain 24hr in | rain mn in | humidity % | barometer mb |
| 20260504002639 | 52 | 280 | 1.0 | 10.0 | 0.00 | 0.00 | 0.00 | 89 | 1006.9 |
| 20260504001605 | 51 | 22 | 1.0 | 9.0 | 0.00 | 0.01 | 0.00 | 89 | 1006.8 |
| 20260504000618 | 51 | 208 | 0.0 | 11.0 | 0.00 | 0.04 | 0.00 | 89 | 1006.8 |
| 20260503235551 | 51 | 277 | 2.0 | 11.0 | 0.00 | 0.07 | 0.00 | 89 | 1006.9 |
| 20260503234541 | 50 | 126 | 1.0 | 12.0 | 0.00 | 0.10 | 0.00 | 89 | 1007.0 |
| 20260503233537 | 50 | 282 | 2.0 | 12.0 | 0.00 | 0.10 | 0.00 | 88 | 1007.2 |
| 20260503231423 | 50 | 237 | 1.0 | 9.0 | 0.00 | 0.11 | 0.00 | 88 | 1007.3 |
| 20260503230426 | 50 | 263 | 1.0 | 13.0 | 0.00 | 0.12 | 0.00 | 87 | 1007.3 |
| 20260503225401 | 50 | 127 | 1.0 | 13.0 | 0.00 | 0.12 | 0.00 | 87 | 1007.2 |
| 20260503224413 | 50 | 304 | 2.0 | 11.0 | 0.00 | 0.12 | 0.00 | 87 | 1007.3 |
| 20260503222215 | 50 | 265 | 1.0 | 10.0 | 0.00 | 0.12 | 0.00 | 87 | 1007.4 |
| 20260503214818 | 49 | 208 | 1.0 | 9.0 | 0.00 | 0.13 | 0.00 | 89 | 1007.2 |
| 20260503213753 | 49 | 157 | 1.0 | 9.0 | 0.00 | 0.13 | 0.00 | 89 | 1007.1 |
| 20260503212743 | 48 | 320 | 1.0 | 9.0 | 0.00 | 0.13 | 0.00 | 89 | 1007.1 |
| 20260503210654 | 49 | 143 | 1.0 | 8.0 | 0.00 | 0.13 | 0.00 | 88 | 1007.2 |
| 20260503205714 | 49 | 55 | 1.0 | 8.0 | 0.00 | 0.13 | 0.00 | 88 | 1007.4 |
| 20260503204716 | 49 | 221 | 1.0 | 9.0 | 0.00 | 0.13 | 0.00 | 87 | 1007.3 |
| 20260503203726 | 49 | 241 | 1.0 | 9.0 | 0.00 | 0.13 | 0.00 | 87 | 1007.3 |
| 20260503202741 | 49 | 234 | 1.0 | 7.0 | 0.00 | 0.13 | 0.00 | 87 | 1007.4 |
| 20260503201732 | 49 | 302 | 1.0 | 9.0 | 0.00 | 0.14 | 0.00 | 86 | 1007.4 |
| 20260503200706 | 49 | 188 | 0.0 | 9.0 | 0.00 | 0.14 | 0.00 | 86 | 1007.6 |
| 20260503195703 | 49 | 155 | 0.0 | 8.0 | 0.00 | 0.17 | 0.00 | 86 | 1007.6 |
| 20260503194657 | 49 | 296 | 0.0 | 7.0 | 0.00 | 0.18 | 0.00 | 86 | 1007.5 |
| 20260503193651 | 50 | 307 | 1.0 | 7.0 | 0.00 | 0.18 | 0.00 | 85 | 1007.6 |
| 20260503191509 | 50 | 173 | 0.0 | 8.0 | 0.00 | 0.18 | 0.00 | 84 | 1007.6 |
| 20260503190506 | 50 | 312 | 1.0 | 8.0 | 0.00 | 0.18 | 0.00 | 85 | 1007.6 |
| 20260503185501 | 50 | 169 | 1.0 | 11.0 | 0.00 | 0.18 | 0.00 | 85 | 1007.7 |
| 20260503184433 | 50 | 214 | 1.0 | 11.0 | 0.00 | 0.18 | 0.00 | 85 | 1007.5 |
| 20260503183401 | 50 | 214 | 1.0 | 9.0 | 0.00 | 0.18 | 0.00 | 85 | 1007.6 |
| 20260503182406 | 50 | 185 | 1.0 | 9.0 | 0.00 | 0.18 | 0.00 | 85 | 1007.7 |
| 20260503175145 | 51 | 266 | 1.0 | 7.0 | 0.00 | 0.18 | 0.00 | 84 | 1008.1 |
| 20260503174115 | 51 | 311 | 1.0 | 7.0 | 0.00 | 0.18 | 0.00 | 84 | 1008.1 |
| 20260503173055 | 51 | 273 | 2.0 | 12.0 | 0.00 | 0.18 | 0.00 | 84 | 1008.2 |
| 20260503172112 | 51 | 237 | 1.0 | 12.0 | 0.00 | 0.18 | 0.00 | 84 | 1008.2 |
| 20260503171128 | 51 | 140 | 1.0 | 11.0 | 0.00 | 0.18 | 0.00 | 84 | 1008.2 |
| 20260503170122 | 51 | 217 | 2.0 | 11.0 | 0.00 | 0.18 | 0.00 | 83 | 1008.3 |
| 20260503130709 | 52 | 299 | 0.0 | 7.0 | 0.00 | 0.20 | 0.20 | 79 | 1010.2 |
| 20260503110340 | 52 | 207 | 0.0 | 6.0 | 0.00 | 0.20 | 0.20 | 79 | 1010.6 |
| 20260503100215 | 53 | 215 | 1.0 | 9.0 | 0.00 | 0.20 | 0.20 | 78 | 1010.2 |
| 20260503090208 | 54 | 295 | 0.0 | 1.0 | 0.00 | 0.21 | 0.20 | 76 | 1009.9 |
| 20260503072717 | 55 | 263 | 0.0 | 2.0 | 0.00 | 0.21 | 0.20 | 77 | 1008.8 |
| 20260503071701 | 55 | 268 | 0.0 | 7.0 | 0.00 | 0.21 | 0.20 | 77 | 1008.8 |
| 20260503070656 | 55 | 272 | 0.0 | 1.0 | 0.00 | 0.21 | 0.20 | 79 | 1008.7 |
| 20260503054647 | 57 | 251 | 0.0 | 6.0 | 0.00 | 0.21 | 0.20 | 81 | 1008.8 |
| 20260503052524 | 58 | 170 | 0.0 | 5.0 | 0.00 | 0.21 | 0.20 | 81 | 1008.8 |
| 20260503051514 | 59 | 261 | 0.0 | 0.0 | 0.00 | 0.21 | 0.20 | 80 | 1008.9 |
| 20260503050505 | 58 | 258 | 1.0 | 5.0 | 0.00 | 0.21 | 0.20 | 77 | 1008.9 |
| 20260503045437 | 58 | 278 | 0.0 | 3.0 | 0.00 | 0.21 | 0.20 | 80 | 1009.0 |
| 20260503044420 | 58 | 299 | 0.0 | 3.0 | 0.00 | 0.21 | 0.20 | 80 | 1008.9 |
| 20260503043436 | 57 | 312 | 0.0 | 1.0 | 0.00 | 0.21 | 0.20 | 82 | 1009.0 |
| 20260503042415 | 57 | 291 | 0.0 | 9.0 | 0.00 | 0.21 | 0.20 | 81 | 1008.9 |
| 20260503041356 | 57 | 337 | 0.0 | 0.0 | 0.00 | 0.21 | 0.20 | 84 | 1008.8 |
| 20260503040407 | 57 | 282 | 0.0 | 7.0 | 0.00 | 0.21 | 0.20 | 83 | 1008.8 |
| 20260503035349 | 58 | 228 | 0.0 | 6.0 | 0.00 | 0.21 | 0.20 | 83 | 1008.9 |
| 20260503034408 | 58 | 270 | 1.0 | 7.0 | 0.00 | 0.21 | 0.20 | 84 | 1008.8 |
| 20260503033427 | 58 | 176 | 0.0 | 10.0 | 0.00 | 0.21 | 0.20 | 86 | 1008.9 |
| 20260503032351 | 57 | 251 | 1.0 | 10.0 | 0.00 | 0.21 | 0.20 | 87 | 1009.1 |
| 20260503031326 | 56 | 218 | 0.0 | 3.0 | 0.00 | 0.21 | 0.20 | 91 | 1009.3 |
| 20260503025158 | 56 | 279 | 1.0 | 8.0 | 0.00 | 0.21 | 0.20 | 92 | 1009.2 |
| 20260503021855 | 55 | 226 | 1.0 | 7.0 | 0.00 | 0.21 | 0.20 | 95 | 1009.2 |
| 20260503020856 | 54 | 180 | 0.0 | 7.0 | 0.00 | 0.21 | 0.20 | 95 | 1009.5 |
| 20260503014748 | 54 | 301 | 1.0 | 5.0 | 0.00 | 0.21 | 0.20 | 95 | 1009.8 |
| 20260503013740 | 54 | 170 | 0.0 | 2.0 | 0.00 | 0.21 | 0.20 | 96 | 1009.7 |
| 20260503012742 | 53 | 323 | 0.0 | 5.0 | 0.00 | 0.21 | 0.20 | 95 | 1009.8 |
| 20260503010618 | 53 | 231 | 0.0 | 0.0 | 0.00 | 0.21 | 0.20 | 95 | 1009.9 |
| 20260503005617 | 53 | 278 | 1.0 | 6.0 | 0.00 | 0.21 | 0.20 | 95 | 1009.7 |
| 20260503004552 | 53 | 266 | 0.0 | 3.0 | 0.00 | 0.21 | 0.20 | 95 | 1009.7 |
| 20260503003551 | 53 | 180 | 0.0 | 1.0 | 0.00 | 0.21 | 0.20 | 95 | 1009.3 |